Regional Weather Roundup
Issued by NWS

Home | Current Version | Previous Version | Text Only | Print | Product List | Glossary Off
Versions: 1 2 3 4 5 6 7 8 9 10 11 12 13 14 15 16 17 18 19 20 21 22 23 24 25 26 27 28 29 30 31 32 33 34 35 36 37 38 39 40 41 42 43 44 45 46 47 48 49 50

851
ASUS43 KFSD 100810
RWRSD

WEATHER ROUNDUP FOR SOUTH DAKOTA
NATIONAL WEATHER SERVICE SIOUX FALLS SD
200 AM CST WED FEB 10 2016

NOTE: "FAIR" INDICATES FEW OR NO CLOUDS BELOW 12,000 FEET WITH NO
SIGNIFICANT WEATHER AND/OR OBSTRUCTIONS TO VISIBILITY.


SDZ001>005-009-010-012>017-100900-
NORTHWEST AND NORTH CENTRAL SOUTH DAKOTA

CITY           SKY/WX    TMP DP  RH WIND       PRES   REMARKS
BUFFALO          N/A     35  26  69 W13       29.84F WCI  26
FAITH            N/A     31  24  75 W6        29.90F WCI  25
MOBRIDGE       CLOUDY    32  24  72 SE7       29.93F WCI  26
$$

SDZ012>016-024>037-041>051-057-063-072>074-100900-
SOUTHWEST AND SOUTH CENTRAL SOUTH DAKOTA

CITY           SKY/WX    TMP DP  RH WIND       PRES   REMARKS
RAPID CTY ARPT CLOUDY    27  23  85 CALM      29.95F
PIERRE         CLEAR     26  22  84 E6        29.94F WCI  19
CUSTER         CLEAR     41  22  46 W12G23    30.02F
ELLSWORTH AFB  CLEAR     32  25  75 W6        29.93F WCI  27
PHILIP         CLEAR     29  26  89 W9        29.94F WCI  20
PINE RIDGE     CLEAR     36  26  67 W12       30.03F
SPEARFISH      FAIR      46  25  42 W10       29.97F
WINNER         FAIR      34  25  69 S7        29.97F WCI  28
$$

SDZ004>011-016>023-039-040-100900-
NORTHEAST SOUTH DAKOTA

CITY           SKY/WX    TMP DP  RH WIND       PRES   REMARKS
ABERDEEN       LGT SNOW  19  14  81 E9        30.06F WCI   8
WATERTOWN      CLOUDY    14   4  64 SE6       30.04F WCI   5
BROOKINGS      PTCLDY    15  10  80 E6        30.06F WCI   6
SISSETON         N/A     11   5  77 E7        30.12S WCI   0
$$

SDZ017-020-022-023-036>040-048>070-100900-
SOUTHEAST SOUTH DAKOTA

CITY           SKY/WX    TMP DP  RH WIND       PRES   REMARKS
SIOUX FALLS    CLOUDY    21  12  68 SE7       30.08F WCI  12
HURON          CLOUDY    25  19  78 SE8       30.04F WCI  16
CHAMBERLAIN    CLOUDY    28  24  84 E3        29.99F
MITCHELL       CLOUDY    27  20  75 SE7       30.05F WCI  19
YANKTON        CLOUDY    21  16  79 E7        30.06F WCI  13
$$

ABBREVIATIONS USED IN REMARKS
   TC - TEMPERATURE IN CELSIUS
  WCI - WIND CHILL INDEX
   HX - HEAT INDEX
  VSB - VISIBILITY





USA.gov is the U.S. government's official web portal to all federal, state and local government web resources and services.